CZ-6A DEB, 61149

Orbit data source: Space-Track

CZ-6A DEB, 61149 is space debris in LEO originally from a launch on Tue, 06 Aug 2024 UTC launched from the Taiyaun Space Center, China (TSC). Debris objects in space refer to the collection of defunct objects orbiting the Earth. Examples of debris include non-operational satellites, rocket bodies, and fragments generated from explosions, collisions, or faulty payload assembly.

Loading next visibility...
Identifier
61149, 2024-140QT
Orbit
LEO
Country
Flag of CNCN / PRC
Related business
Manufacturer
SAST
Mission
Spacecraft
Bus & Motor
Unknown
Mass
Unknown
Launch date (UTC)
2024-08-06 (1 year ago)
Launch vehicle
Unknown
Launch site
Taiyaun Space Center, China (TSC)
Object type
Payload
Rocket body
Debris
Shape & HBR
Unknown shape, 0.1 m
Radar Cross Section
Small (<0.1 m²)

Expand to show TLE details & history
Last TLE update: 1 day ago

TLE from 1 day ago
0 CZ-6A DEB
1 61149U 24140QT  25353.33754861  .00000869  00000-0  34718-3 0  9996
2 61149  88.9514 291.3709 0032145  95.0241 265.4624 14.27344147 69062
Epoch: 2025-12-19T08:06Z
TLE epoch observation values (Epoch: 2025-12-19T08:06:04.199Z)
Latitude
-0.00003°
Longitude
81.67326°
Altitude
805.585 km
Speed
7.45 km/s
True Right ascension
19h 25m 29s
True Declination
0° 00' 00"
Sunlit
Object was in daylight at epoch
Visualization orbit readout
Latitude
Unknown
Longitude
Unknown
Altitude
Unknown
Speed
Unknown
Apparent Right ascension
Unknown
Apparent Declination
Unknown
Sunlit
N/A
Visualization observer readout
Local Sidereal Time
08:15:55
Azimuth
Unknown
Elevation
Unknown
Doppler factor
Unknown
Orbital elements
Apogee altitude
820.629 km
Perigee altitude
774.497 km
Semi-major axis
7,175.7 km
Eccentricity
0.00321
Inclination
88.9514°
RAAN
291.3709°
Arg. of periapsis
95.0241°
True anomaly
265.09532°
Mean anomaly
265.4624°
Eccentric anomaly
265.27885°
Mean motion
3.57065 °/min
Orbital period
100.82 mins
BSTAR
0.00034718
Loading maneuver chart data...
Computing Atmospheric mass density...

Documentation

Showing up to 5 results
|